www.pogodaiklimat.ru

Погода и климат >> Архив погоды >> Франция >> Ним


ПОГОДА в Ниме

  • Прогноз погоды в Ниме
  • Монитор погоды в Ниме

АРХИВ ПОГОДЫ в Ниме

Время (UTC), дата Ветер
(напр.,м/с)
 
Видим.   Явления Облачность Т
(С)
Тd
(С)
f
(%)
Тe
(С)
Тes
(С)
Комфортность P
(гПа)
Po
(гПа)
Тmin
(С)
Tmax
(С)
R
(мм)
R24
(мм)
S
(см)
13 9.06 СВ 2-4
{5}
24 км н/о +27.4 +10.6 35 +28 +28 жарко 1014.2 1002.2
14 9.06 СЗ 2-3
{4}
35 км н/о +26.9 +11.0 37 +28 +28 жарко 1014.4 1002.4
15 9.06 С 2-2
{3}
60 км н/о +25.5 +11.3 41 +27 +27 жарко 1013.9 1001.9
16 9.06 С 2-2
{3}
50 км н/о +24.9 +12.1 45 +27 +27 жарко 1013.4 1001.4
17 9.06 В 1-2
{3}
50 км 9/9
[]
+24.6 +11.9 45 +26 +27 жарко 1013.4 1001.3
18 9.06 СЗ 2
{6}
55 км 9/0
[]
+23.6 +12.9 51 +26 +26 жарко 1014.0 1001.9 +16.0 +27.9
19 9.06 З 1 55 км н/о +22.7 +13.7 57 +26 +26 жарко 1013.9 1001.8
20 9.06 СВ 2 55 км 10/10
[]
+21.9 +13.8 60 +25 +25 комфорт 1013.7 1001.5
21 9.06 С 2
{6}
55 км 10/0
[]
+20.8 +13.5 63 +24 +24 комфорт 1013.6 1001.4
22 9.06 С 1-2
{2}
55 км 10/10
[]
+19.8 +13.9 69 +23 +23 комфорт 1014.1 1001.9
23 9.06 СЗ 2 45 км 10/10
[]
+19.7 +14.5 72 +22 +22 комфорт 1015.4 1003.1 0.0
00 10.06 С 2-2
{2}
50 км 8/0
[]
+19.0 +14.5 75 +21 +21 комфорт 1014.8 1002.5 0.0
01 10.06 С 1-2
{3}
55 км 10/10
[]
+18.8 +14.1 74 +21 +21 комфорт 1014.6 1002.3
02 10.06 СВ 2 60 км 10/10
[]
+18.8 +13.2 70 +20 +20 1013.4 1001.1
03 10.06 С 2-2
{3}
60 км 10/0
[]
+17.8 +13.3 75 +19 +19 1013.3 1001.0
04 10.06 С 3-4
{5}
55 км 9/9
[]
+18.1 +13.0 72 +19 +19 1012.7 1000.4
05 10.06 С 3 50 км 10/10 2000 м
[]
+18.3 +12.9 71 +19 +19 1012.4 1000.1
06 10.06 С 2
{9}
50 км 10/0
[]
+18.4 +13.5 73 +19 +19 1012.9 1000.6 +17.7 +23.6 0.0
07 10.06 С 3-4
{4}
50 км 8/8 1500 м
[]
+18.4 +13.7 74 +19 +20 1012.4 1000.1 0.0
08 10.06 С 3 60 км 8/8 1500 м
[]
+20.0 +13.5 66 +22 +24 комфорт 1012.7 1000.5 0.0
09 10.06 С 3-5
{5}
55 км н/о +21.7 +12.8 57 +24 +24 комфорт 1012.4 1000.2 0.0
10 10.06 С 4 40 км н/о +23.4 +13.0 52 +26 +26 жарко 1011.7 999.6
11 10.06 С 4-6
{6}
28 км 9/9
[]
+24.0 +12.6 49 +26 +27 жарко 1011.1 999.1
12 10.06 С 3-6
{6}
20 км н/о +24.4 +12.0 46 +26 +26 жарко 1011.0 999.0
13 10.06 С 3-5
{6}
16 км н/о +25.1 +11.3 42 +26 +26 жарко 1010.8 998.8
14 10.06 С 3-5
{5}
13 км н/о +25.9 +12.4 43 +27 +27 жарко 1010.5 998.5
15 10.06 С 3-4
{5}
14 км н/о +25.7 +12.5 44 +27 +27 жарко 1009.8 997.8
16 10.06 СВ 3-4
{5}
16 км н/о +24.7 +12.6 47 +27 +27 жарко 1009.4 997.4
17 10.06 СВ 3-5
{5}
19 км н/о +23.3 +12.3 50 +26 +26 жарко 1009.4 997.3
18 10.06 С 3
{10}
19 км н/о +22.3 +11.4 50 +24 +24 комфорт 1009.9 997.8 +18.3 +26.8
19 10.06 С 3-4
{5}
60 км 10/9 1440 м
[]
+20.7 +11.6 56 +23 +23 комфорт 1010.8 998.6
20 10.06 С 3-5
{6}
60 км н/о +19.3 +11.3 60 +21 +21 комфорт 1011.0 998.8
21 10.06 С 4-6
{6}
60 км 10/0 2000 м
[]
+18.5 +10.6 60 +19 +19 1011.8 999.5
22 10.06 С 2-5
{5}
60 км 10/10 1500 м
[]
+18.3 +10.1 59 +19 +19 1012.1 999.8
23 10.06 С 2-4
{4}
60 км 10/10 1500 м
[]
+16.9 +10.0 64 +17 +17 1011.9 999.5 0.0
00 11.06 СЗ 1-3
{4}
60 км 10/0 2000 м
[]
+16.7 +9.4 62 +18 +18 1011.8 999.4 0.0
01 11.06 С 2-3
{3}
60 км 10/10 2000 м
[]
+16.7 +7.6 55 +17 +17 1011.4 999.0
02 11.06 С 2 60 км 10/10 2000 м
[]
+15.6 +7.4 58 +16 +16 1011.2 998.8
03 11.06 С 3-4
{4}
60 км 10/0 2000 м
[]
+15.4 +7.2 58 +15 +15 1010.7 998.3
04 11.06 С 3-4
{4}
60 км 10/10
[]
+14.7 +7.3 61 +14 +14 1010.6 998.2
05 11.06 С 3-4
{4}
60 км 10/10
[]
+15.0 +7.0 59 +15 +15 1010.8 998.4
06 11.06 С 2
{7}
55 км 10/0
[]
+15.6 +7.4 58 +16 +16 1010.3 997.9 +14.7 +22.3
07 11.06 С 2 55 км 9/9
[]
+16.1 +7.3 56 +17 +17 1011.1 998.7
08 11.06 С 1-2
{3}
45 км слаб. дождь 10/10 2000 м
[]
+15.9 +8.1 60 +17 +17 1011.5 999.1 0.0
09 11.06 С 2-3
{3}
60 км н/о +17.4 +8.0 54 +18 +18 1011.1 998.8 0.0
10 11.06 С 1-2
{3}
60 км н/о +18.6 +7.4 48 +20 +20 1011.4 999.1
11 11.06 СЗ 2 30 км слаб. дождь 10/6 1000 м
[]
+18.1 +8.9 55 +19 +23 1011.7 999.4 0.0
12 11.06 ЮЗ 1
{4}
24 км слаб. дождь 10/10 1000 м
[]
+17.2 +10.3 64 +18 +28 1012.1 999.8 0.0
13 11.06 Ю 2 30 км слаб. дождь 10/9 270 м
[]
+16.9 +12.8 77 +17 +18 1012.4 1000.0 0.2
14 11.06 З 1 4000 м дождь 10/9 400 м
[]
+15.5 +12.6 83 +17 +18 1012.2 999.8 1
15 11.06 ЮЗ 1-1
{1}
35 км слаб. дождь 10/10 1000 м
[]
+15.3 +12.1 81 +17 +17 1012.1 999.7 2
16 11.06 штиль 0 50 км 8/3 1000 м
[]
+15.9 +12.3 79 +16 +20 1012.0 999.6 0.2
17 11.06 Ю 1-1
{2}
4300 м слаб. дождь 10/1 800 м
[]
+15.1 +12.4 84 +16 +18 1012.0 999.6 0.6
18 11.06 ЮЗ 1
{4}
35 км слаб. дождь н/о +14.8 +12.8 88 +16 +16 1012.0 999.6 +14.8 +18.8 1
19 11.06 Ю 1-1
{1}
40 км 10/10 2000 м
[]
+14.5 +12.7 89 +16 +16 1011.9 999.5 0.0
20 11.06 Ю 1 28 км 10/10
[]
+14.2 +12.9 92 +15 +15 1012.2 999.7
21 11.06 штиль 0
{2}
29 км дождь 9/9 1500 м
[]
+14.1 +12.8 92 +14 +14 1012.3 999.8 0.0
22 11.06 Ю 1-1
{2}
8000 м слаб. дождь 10/10 2000 м
[]
+14.1 +13.1 94 +15 +15 1012.8 1000.3 1
23 11.06 ЮВ 1 19 км слаб. дождь 10/10 1500 м
[]
+13.9 +12.9 94 +15 +15 1012.5 1000.0 1
00 12.06 З 1
{4}
40 км 10/10 600 м
[]
+13.2 +11.8 91 +13 +13 1012.3 999.8 2
01 12.06 З 1-1
{1}
19 км н/о +12.5 +11.6 94 +12 +12 1012.6 1000.1
02 12.06 З 1-2
{2}
60 км н/о +11.2 +9.6 90 +11 +11 1012.7 1000.1
03 12.06 СЗ 1-2
{2}
40 км н/о +10.4 +9.5 94 +10 +10 1012.6 1000.0
04 12.06 СЗ 2-2
{2}
55 км н/о +10.4 +9.5 94 +9 +9 1013.0 1000.3
05 12.06 СЗ 1-2
{2}
45 км н/о +11.5 +9.4 87 +11 +11 1013.2 1000.6
06 12.06 СЗ 1
{4}
40 км н/о +13.5 +9.9 79 +14 +14 1013.6 1001.1 +10.0 +14.8
07 12.06 С 2-2
{2}
35 км н/о +16.1 +10.6 70 +16 +16 1013.9 1001.5
08 12.06 С 1-3
{3}
35 км н/о +17.4 +8.5 56 +18 +18 1014.1 1001.7
09 12.06 С 1-2
{3}
35 км н/о +18.9 +8.2 50 +21 +21 комфорт 1014.1 1001.8
10 12.06 З 1-2
{3}
45 км н/о +19.8 +8.2 47 +22 +22 комфорт 1014.0 1001.7
11 12.06 В 1-2
{3}
45 км н/о +20.8 +6.7 40 +23 +23 комфорт 1013.7 1001.5
12 12.06 Ю 2-3
{4}
45 км н/о +21.6 +7.8 41 +23 +23 комфорт 1013.5 1001.3
13 12.06 Ю 3-5
{5}
40 км н/о +21.9 +9.8 46 +23 +23 комфорт 1013.7 1001.5
14 12.06 Ю 3-5
{5}
35 км н/о +21.8 +9.3 45 +23 +23 комфорт 1013.6 1001.4
15 12.06 ЮЗ 3-4
{4}
35 км н/о +21.7 +8.6 43 +23 +23 комфорт 1013.7 1001.5
16 12.06 Ю 2-4
{4}
30 км н/о +21.9 +7.7 40 +23 +23 комфорт 1013.4 1001.2
17 12.06 Ю 2-4
{4}
30 км н/о +21.3 +8.5 44 +22 +22 комфорт 1013.3 1001.1
18 12.06 ЮЗ 2-3
{4}
35 км н/о +20.0 +8.6 48 +22 +22 комфорт 1013.7 1001.4 +13.5 +22.5
19 12.06 ЮЗ 2-3
{4}
55 км н/о +17.5 +8.9 57 +18 +18 1014.3 1001.9
20 12.06 ЮЗ 1-2
{3}
60 км н/о +15.7 +11.1 74 +16 +16 1014.7 1002.3
21 12.06 ЮЗ 2-3
{3}
55 км н/о +15.0 +11.6 80 +15 +15 1015.4 1002.9
22 12.06 ЮЗ 1-2
{3}
40 км н/о +14.3 +11.8 85 +15 +15 1015.4 1002.9
23 12.06 З 2-3
{3}
45 км н/о +14.2 +11.4 83 +14 +14 1015.6 1003.1
00 13.06 З 1-1
{4}
40 км н/о +13.5 +10.8 84 +14 +14 1015.7 1003.2
01 13.06 СЗ 1-1
{1}
19 км н/о +11.6 +10.3 92 +12 +12 1015.4 1002.8
02 13.06 СЗ 1-1
{1}
25 км н/о +10.7 +9.3 91 +11 +11 1015.0 1002.3
03 13.06 В 2-3
{3}
10 км н/о +11.4 +10.9 97 +10 +10 1014.7 1002.1
04 13.06 С 1-1
{2}
5000 м н/о +9.6 +9.0 96 +10 +10 1015.3 1002.6 0.2
05 13.06 С 1-1
{1}
12 км н/о +11.1 +10.5 96 +12 +12 1015.8 1003.1
06 13.06 С 1
{3}
19 км н/о +14.2 +12.4 89 +15 +15 1015.8 1003.3 +8.8 +20.0 0.2
07 13.06 В 1-1
{3}
24 км н/о +16.7 +13.0 79 +18 +18 1016.0 1003.6
08 13.06 СВ 1-2
{2}
25 км н/о +18.8 +12.1 65 +21 +21 комфорт 1015.9 1003.6
09 13.06 В 1-2
{3}
35 км н/о +20.8 +11.1 54 +24 +24 комфорт 1015.7 1003.5
10 13.06 В 1-2
{2}
35 км н/о +23.5 +10.2 43 +25 +25 комфорт 1015.5 1003.4
11 13.06 Ю 1-4
{4}
40 км н/о +24.1 +6.8 33 +24 +24 комфорт 1015.4 1003.3
12 13.06 Ю 2-3
{4}
40 км н/о +25.2 +9.9 38 +26 +26 жарко 1014.9 1002.8
13 13.06 ЮВ 2-4
{4}
40 км н/о +25.8 +8.3 33 +26 +26 жарко 1014.7 1002.7
14 13.06 Ю 3-4
{4}
35 км н/о +25.1 +7.7 33 +25 +25 комфорт 1014.5 1002.4
15 13.06 Ю 3-4
{4}
45 км н/о +25.2 +7.8 33 +25 +25 комфорт 1013.9 1001.9
16 13.06 Ю 3-4
{5}
30 км н/о +24.0 +7.6 35 +24 +24 комфорт 1013.8 1001.7
17 13.06 Ю 2-3
{4}
60 км н/о +21.2 +10.9 52 +23 +23 комфорт 1014.2 1002.0
18 13.06 Ю 2
{7}
55 км 9/0
[]
+19.5 +11.8 61 +22 +22 комфорт 1014.5 1002.2 +14.3 +26.5
19 13.06 ЮЗ 1-1
{2}
60 км 9/9
[]
+18.4 +13.0 71 +20 +20 1014.3 1002.0
20 13.06 штиль 0
{1}
60 км 10/10
[]
+17.2 +12.7 75 +17 +17 1014.8 1002.4
21 13.06 С 1-1
{1}
50 км 10/0
[]
+16.1 +12.5 79 +17 +17 1015.1 1002.7
22 13.06 СВ 1 55 км 10/10
[]
+16.3 +13.2 82 +18 +18 1014.7 1002.3
23 13.06 С 1-1
{1}
50 км 10/10
[]
+15.0 +11.9 82 +16 +16 1014.7 1002.2
00 14.06 С 1
{3}
50 км 10/0
[]
+14.9 +12.6 86 +16 +16 1014.6 1002.1
01 14.06 С 1-1
{1}
55 км н/о +14.5 +11.6 83 +16 +16 1013.9 1001.4
02 14.06 С 1-2
{2}
55 км н/о +13.0 +10.0 82 +13 +13 1012.9 1000.4
03 14.06 СЗ 1-2
{2}
60 км н/о +13.7 +9.1 74 +14 +14 1012.5 1000.0
04 14.06 СЗ 2-2
{3}
45 км 10/10
[]
+15.8 +8.0 60 +16 +16 1013.2 1000.8
05 14.06 СВ 2 19 км слаб. дождь 10/10 2000 м
[]
+16.1 +8.1 59 +16 +16 1012.8 1000.4 0.0
06 14.06 СВ 2
{6}
45 км слаб. дождь 10/0 2000 м
[]
+16.1 +8.6 61 +16 +16 1012.3 999.9 +12.7 +19.5 0.0
07 14.06 СВ 3-4
{4}
60 км н/о +16.7 +10.1 65 +17 +17 1011.5 999.1 0.0
08 14.06 С 2-3
{3}
60 км 8/8
[]
+19.2 +11.0 59 +21 +23 комфорт 1012.1 999.8
09 14.06 С 2-4
{4}
60 км 10/0
[]
+19.9 +9.7 52 +22 +22 комфорт 1011.4 999.2 0.0
10 14.06 С 3-5
{5}
50 км н/о +21.7 +10.2 48 +23 +23 комфорт 1010.8 998.7
11 14.06 СВ 4-6
{6}
35 км н/о +24.5 +12.4 47 +26 +26 жарко 1009.9 997.9
12 14.06 С 3-5
{6}
26 км н/о +25.3 +11.8 43 +27 +27 жарко 1009.1 997.1
13 14.06 С 2-4
{5}
35 км н/о +25.2 +12.1 44 +27 +27 жарко 1006.8 994.9
14 14.06 СЗ 1-2
{5}
40 км н/о +27.1 +12.7 41 +29 +29 жарко 1008.1 996.2
15 14.06 З 1-3
{3}
19 км н/о +29.2 +13.0 37 +31 +31 жарко 1007.7 995.9
16 14.06 ЮЗ 2-3
{3}
45 км н/о +28.9 +11.9 35 +30 +30 жарко 1007.1 995.3
17 14.06 Ю 5-8
{8}
14 км н/о +22.9 +16.4 67 +28 +28 душно 1008.8 996.8
18 14.06 Ю 4
{14}
15 км 10/10 300 м
[]
+21.8 +18.2 80 +27 +27 душно 1010.2 998.1 +16.1 +29.6
19 14.06 ЮВ 4-5
{6}
8000 м 10/10 240 м
[]
+20.7 +18.6 88 +25 +25 комфорт 1010.0 997.9
20 14.06 ЮВ 2-3
{5}
6000 м 10/10 240 м
[]
+20.3 +18.4 89 +24 +24 комфорт 1011.5 999.3
21 14.06 ЮВ 2-3
{4}
1800 м слаб. морось 10/10 100 м
[]
+19.3 +18.6 96 +22 +22 комфорт 1012.1 999.9 0.4
22 14.06 ЮВ 2-3
{4}
4600 м дымка 10/10 120 м
[]
+19.2 +18.7 97 +22 +22 комфорт 1012.4 1000.2 0.0
23 14.06 ЮВ 2-3
{4}
1600 м дымка 10/10 90 м
[]
+19.0 +18.5 97 +21 +21 комфорт 1013.1 1000.9
00 15.06 ЮВ 2-3
{4}
1100 м дымка 10/10 50 м
[]
+18.4 +18.1 98 +20 +20 1013.4 1001.1 0.0
01 15.06 ЮВ 2-3
{3}
300 м туман ?/? +18.1 +17.8 98 +19 +19 1013.6 1001.3
02 15.06 ЮВ 1-2
{3}
300 м туман ?/? +17.9 +17.7 99 +19 +19 1013.7 1001.4 0.2
03 15.06 ЮВ 1-1
{2}
4100 м дымка 10/10 100 м
[]
+17.8 +17.5 98 +19 +19 1014.3 1002.0 0.2
04 15.06 В 1-2
{2}
6000 м 10/10 210 м
[]
+17.6 +17.1 97 +19 +19 1014.4 1002.1
05 15.06 В 2-2
{2}
2600 м дымка 10/10 180 м
[]
+17.7 +17.2 97 +18 +18 1014.8 1002.5
06 15.06 В 2
{4}
1500 м дымка 10/10 50 м
[]
+17.8 +17.5 98 +19 +19 1015.0 1002.7 +17.5 +21.6
07 15.06 СВ 1-1
{2}
3200 м дымка 10/10 120 м
[]
+18.1 +17.8 98 +20 +20 1015.6 1003.3
08 15.06 СВ 1-2
{2}
2000 м дымка 10/10 90 м
[]
+18.3 +18.0 98 +20 +20 1016.1 1003.8 0.6
09 15.06 ЮВ 1-2
{2}
900 м туман 10/10 50 м
[]
+18.7 +18.4 98 +21 +21 комфорт 1016.5 1004.2 0.8
10 15.06 Ю 2-2
{3}
10 км 10/10 210 м
[]
+19.4 +18.7 96 +23 +23 комфорт 1016.2 1003.9
11 15.06 Ю 2-3
{3}
17 км 10/10 400 м
[]
+20.3 +19.0 92 +25 +25 комфорт 1016.2 1004.0
12 15.06 Ю 2
{7}
19 км 10/10 300 м
[]
+21.9 +18.7 82 +27 +27 душно 1016.2 1004.0
13 15.06 ЮЗ 2-4
{4}
28 км 10/6 500 м
[]
+23.3 +18.4 74 +29 +33 душно 1016.1 1004.0
14 15.06 З 2 13 км 10/10 660 м
[]
+23.8 +18.2 71 +28 +28 душно 1016.0 1003.9
15 15.06 З 2-4
{4}
20 км н/о +26.1 +17.2 58 +30 +30 душно 1015.8 1003.8
16 15.06 С 2 25 км 9/8 1140 м
[]
+25.0 +16.2 58 +28 +29 жарко 1015.6 1003.6
17 15.06 СВ 3-5
{6}
29 км 8/6 1410 м
[]
+22.1 +13.2 57 +25 +26 комфорт 1016.4 1004.2
18 15.06 С 2-4
{5}
35 км н/о +22.1 +11.2 50 +24 +24 комфорт 1016.7 1004.5 +17.8 +26.6
19 15.06 С 2-4
{4}
40 км н/о +20.6 +11.0 54 +23 +23 комфорт 1017.2 1004.9
20 15.06 С 2-3
{4}
60 км н/о +18.3 +11.4 64 +19 +19 1017.8 1005.4
21 15.06 С 2-3
{3}
60 км н/о +17.8 +11.6 67 +19 +19 1018.5 1006.1
22 15.06 С 2-4
{4}
60 км н/о +17.4 +11.0 66 +18 +18 1019.2 1006.8
23 15.06 С 2-3
{3}
60 км н/о +16.8 +11.1 69 +17 +17 1019.4 1007.0
00 16.06 СЗ 2-2
{3}
60 км н/о +15.9 +11.5 75 +16 +16 1019.5 1007.0
01 16.06 С 1-2
{3}
60 км н/о +15.4 +11.4 77 +16 +16 1019.2 1006.7
02 16.06 СЗ 2-3
{4}
60 км н/о +15.5 +11.9 79 +15 +15 1019.1 1006.6
03 16.06 С 2-4
{4}
60 км н/о +14.6 +11.0 79 +15 +15 1018.7 1006.2
04 16.06 СЗ 2-3
{3}
60 км н/о +14.9 +9.9 72 +15 +15 1019.0 1006.5
05 16.06 С 2-4
{4}
10 км н/о +16.6 +9.8 64 +17 +17 1019.0 1006.5
06 16.06 С 4
{11}
10 км н/о +18.7 +10.0 57 +19 +19 1018.7 1006.3 +14.4 +22.1
07 16.06 С 4-5
{7}
9000 м н/о +20.6 +10.1 51 +22 +22 комфорт 1018.7 1006.4
08 16.06 С 5-7
{7}
9000 м н/о +22.1 +10.6 48 +24 +24 комфорт 1018.7 1006.5
09 16.06 С 4-7
{7}
10 км н/о +23.3 +10.0 43 +25 +25 комфорт 1018.5 1006.3
10 16.06 С 5-7
{7}
12 км н/о +24.8 +10.3 40 +26 +26 жарко 1017.8 1005.7
11 16.06 С 5-7
{8}
11 км н/о +26.4 +10.1 36 +27 +27 жарко 1017.1 1005.1
12 16.06 С 4-6
{7}
12 км н/о +27.6 +10.3 34 +28 +28 жарко 1016.7 1004.7
13 16.06 С 4-6
{6}
13 км н/о +28.6 +10.3 32 +29 +29 жарко 1016.2 1004.3

 

Местоположение метеостанции Ним (Франция): широта 43.75 долгота 4.42 высота над уровнем моря 96 м.

В архиве по умолчанию представлена погода в Ниме за последнюю неделю. Архивные данные за месяц целиком и за предыдущие месяцы, начиная с января 2011 года, Вы можете получить, выбрав интересующий диапазон дат из раскрывающегося списка и нажав кнопку "Ввод!".


*Определитесь, кто Вы:
робот инопланетянин человек

Внимание! Время в таблицах - всемирное. Для получения местного времени необходимо прибавить поправку, которая равна 1 ч.

Смотрите также архив погоды в соседних городах и на ближайших метеорологических станциях:

Погода в Ним аэропорту (Франция) (13 км)
Погода в Монпелье (Франция) (41 км)
Погода в Авиньон (Франция) (42 км)
Погода в Истре (Франция) (48 км)
Погода в Оранже (Франция) (54 км)
Погода в Салон-де-Провансе (Франция) (57 км)
Погода в Карпентрасе (Франция) (62 км)
Погода на Ла Куроне (Франция) (69 км)
Погода в Мариньяне (Франция) (73 км)
Погода в Мон Эгуале (Франция) (79 км)

Пояснения к столбцам:

Ветер - указаны скорость ветра в м/с - средняя за 10 мин, порывы в срок и между сроками (в фигурных скобках) и направление, откуда дует ветер: С - северный, СВ - северо-восточный, В - восточный, ЮВ - юго-восточный, Ю - южный, ЮЗ - юго-западный, З - западный, СЗ - северо-западный.
Видимость - горизонтальная дальность видимости в метрах или километрах. При видимости от 1 до 10 км при отсутствии осадков обычно наблюдается дымка, при ухудшении видимости до 1 км и менее - туман. В сухую погоду видимость может ухудшаться дымом, пылью или мглою.
Явления - указаны атмосферные явления, наблюдавшиеся в срок или в последний час перед сроком; фигурными скобками обозначены явления, наблюдавшиеся между сроками (за 1-3 часа до срока); квадратными скобками обозначены град или гололедные отложения с указанием их диаметра в мм.
Облачность - указаны через наклонную черту общая и нижняя облачность в баллах и высота нижней границы облаков в метрах; квадратными скобками обозначены формы облаков: Ci - перистые, Cs - перисто-слоистые, Cc - перисто-кучевые, Ac - высококучевые, As - высокослоистые, Sc - слоисто-кучевые, Ns - слоисто-дождевые, Cu - кучевые, Cb - кучево-дождевые. Подробнее классификацию облаков см. в Атласе облаков (PDF).
T - Температура воздуха - температура, измеренная на высоте 2 м над землей.
Td - Температура точки росы - температура, при понижении до которой содержащийся в воздухе водяной пар достигнет насыщения.
f - Относительная влажность воздуха - влажноcть воздуха, измеренная на высоте 2 м над землей.
Te - Эффективная температура - температура, которую ощущает одетый по сезону человек в тени. Характеристика душности погоды. При расчете учитывается влияние влажности воздуха и скорости ветра на теплоощущения человека.
Tes - Эффективная температура на солнце - температура, которую ощущает человек, с поправкой на солнечный нагрев. Характеристика знойности погоды. Зависит от высоты солнца над горизонтом, облачности и скорости ветра. Ночью, в пасмурную погоду, а также при ветре 12 м/с и более поправка равна нулю.
P - Атмосферное давление - приведенное к уровню моря атмосферное давление.
Po - Атмосферное давление - измеренное на уровне метеостанции атмосферное давление.
Tmin - Минимальная температура - минимум температуры воздуха на высоте 2 м над землей.
Tmax - Максимальная температура - максимум температуры воздуха на высоте 2 м над землей.
R - Количество осадков - Количество выпавших осадков за период времени, мм. При наведении курсора мыши на число - период времени, за который выпало указанное количество осадков.
R24 - Количество осадков - Количество выпавших осадков за 24 часа, мм.
S - Снежный покров - Высота снежного покрова, см. При наведении курсора мыши на число - состояние снежного покрова и степень покрытия местности в баллах.